Location: Fours
(44.3167°N, 6.7000°E)
Time: 14:09:33
(UTC+00:00)

X-37B - Pass Details

Date: 05 December 2021
Orbit: 334 x 337 km, 45.0° (Epoch: 11 January)

Event Time Altitude Azimuth Distance (km) Brightness Sun altitude
Rises 18:07:27 0° 221° (SW) 2,093 5.1 -23.0°
Reaches altitude 10° 18:09:40 10° 206° (SSW) 1,260 3.6 -23.4°
Enters shadow 18:09:56 12° 203° (SSW) 1,173 3.4 -23.5°
